| time (UTC) | temp C | wind direction | speed KPH | gust KPH | rain 1hr cm | rain 24hr cm | rain mn cm | humidity % | barometer mb |
| 20260508074403 | 10 | 331 | 0.0 | 0.0 | 0.00 | 0.00 | 0.00 | 3 | 1012.8 |
| 20260508073404 | 10 | 331 | 0.0 | 0.0 | 0.00 | 0.00 | 0.00 | 3 | 1012.8 |
| 20260508071404 | 10 | 331 | 0.0 | 0.0 | 0.00 | 0.00 | 0.00 | 3 | 1012.7 |
| 20260508070903 | 10 | 331 | 0.0 | 0.0 | 0.00 | 0.00 | 0.00 | 3 | 1012.7 |
| 20260508064903 | 8 | 331 | 0.0 | 0.0 | 0.00 | 0.00 | 0.00 | 3 | 1012.6 |
| 20260508064403 | 8 | 331 | 0.0 | 0.0 | 0.00 | 0.00 | 0.00 | 3 | 1012.4 |
| 20260508063904 | 8 | 331 | 0.0 | 0.0 | 0.00 | 0.00 | 0.00 | 3 | 1012.4 |
| 20260508061904 | 8 | 261 | 0.0 | 0.0 | 0.00 | 0.00 | 0.00 | 3 | 1012.2 |
| 20260508060404 | 8 | 260 | 0.0 | 0.0 | 0.00 | 0.00 | 0.00 | 3 | 1012.0 |
| 20260508053903 | 7 | 261 | 0.0 | 0.0 | 0.00 | 0.00 | 0.00 | 3 | 1011.8 |
| 20260508051405 | 7 | 261 | 0.0 | 0.0 | 0.00 | 0.00 | 0.00 | 3 | 1011.7 |
| 20260508044903 | 7 | 261 | 0.0 | 0.0 | 0.00 | 0.00 | 0.00 | 3 | 1011.5 |
| 20260508044405 | 7 | 261 | 0.0 | 0.0 | 0.00 | 0.00 | 0.00 | 3 | 1011.5 |
| 20260508043904 | 7 | 261 | 0.0 | 0.0 | 0.00 | 0.00 | 0.00 | 3 | 1011.5 |
| 20260508043403 | 7 | 261 | 0.0 | 0.0 | 0.00 | 0.00 | 0.00 | 3 | 1011.5 |
| 20260508041405 | 7 | 261 | 0.0 | 0.0 | 0.00 | 0.00 | 0.00 | 3 | 1011.6 |
| 20260508040904 | 7 | 261 | 0.0 | 0.0 | 0.00 | 0.00 | 0.00 | 3 | 1011.6 |
| 20260508040406 | 7 | 261 | 0.0 | 0.0 | 0.00 | 0.00 | 0.00 | 3 | 1011.6 |
| 20260508034905 | 7 | 261 | 0.0 | 0.0 | 0.00 | 0.00 | 0.00 | 3 | 1011.6 |
| 20260508034405 | 7 | 261 | 0.0 | 0.0 | 0.00 | 0.00 | 0.00 | 3 | 1011.6 |
| 20260508033404 | 7 | 261 | 0.0 | 0.0 | 0.00 | 0.00 | 0.00 | 3 | 1011.6 |
| 20260508031905 | 7 | 261 | 0.0 | 0.0 | 0.00 | 0.00 | 0.00 | 3 | 1011.6 |
| 20260508021904 | 7 | 261 | 0.0 | 0.0 | 0.00 | 0.00 | 0.00 | 3 | 1011.4 |
| 20260508021404 | 7 | 261 | 0.0 | 0.0 | 0.00 | 0.00 | 0.00 | 3 | 1011.5 |
| 20260508013905 | 8 | 261 | 0.0 | 0.0 | 0.00 | 0.00 | 0.00 | 3 | 1011.5 |
| 20260508013403 | 8 | 261 | 0.0 | 0.0 | 0.00 | 0.00 | 0.00 | 3 | 1011.5 |
| 20260508011404 | 8 | 261 | 0.0 | 0.0 | 0.00 | 0.00 | 0.00 | 3 | 1011.4 |
| 20260508010404 | 8 | 261 | 0.0 | 0.0 | 0.00 | 0.00 | 0.00 | 3 | 1011.4 |
| 20260508003903 | 8 | 261 | 0.0 | 0.0 | 0.00 | 0.00 | 0.00 | 3 | 1011.4 |
| 20260508003404 | 8 | 261 | 0.0 | 0.0 | 0.00 | 0.00 | 0.00 | 3 | 1011.4 |
| 20260508000904 | 8 | 261 | 0.0 | 0.0 | 0.00 | 0.00 | 0.00 | 3 | 1011.6 |
| 20260508000405 | 8 | 261 | 0.0 | 0.0 | 0.00 | 0.00 | 0.00 | 3 | 1011.6 |
| 20260507233403 | 8 | 261 | 0.0 | 0.0 | 0.00 | 0.00 | 0.00 | 3 | 1011.6 |
| 20260507231403 | 10 | 261 | 0.0 | 0.0 | 0.00 | 0.00 | 0.00 | 3 | 1011.6 |
| 20260507230904 | 10 | 261 | 0.0 | 0.0 | 0.00 | 0.00 | 0.00 | 3 | 1011.6 |
| 20260507224404 | 8 | 261 | 0.0 | 0.0 | 0.00 | 0.00 | 0.00 | 3 | 1011.5 |
| 20260507220904 | 8 | 261 | 0.0 | 0.0 | 0.00 | 0.00 | 0.00 | 3 | 1011.3 |
| 20260507214403 | 10 | 261 | 0.0 | 0.0 | 0.00 | 0.00 | 0.00 | 3 | 1011.3 |
| 20260507213905 | 10 | 261 | 0.0 | 0.0 | 0.00 | 0.00 | 0.00 | 3 | 1011.3 |
| 20260507204903 | 11 | 261 | 0.0 | 0.0 | 0.00 | 0.00 | 0.00 | 3 | 1011.2 |
| 20260507203904 | 11 | 261 | 0.0 | 0.0 | 0.00 | 0.00 | 0.00 | 3 | 1011.1 |
| 20260507194905 | 11 | 261 | 0.0 | 0.0 | 0.00 | 0.00 | 0.00 | 3 | 1010.5 |
| 20260507194404 | 11 | 261 | 0.0 | 0.0 | 0.00 | 0.00 | 0.00 | 3 | 1010.5 |
| 20260507193403 | 11 | 261 | 0.0 | 0.0 | 0.00 | 0.00 | 0.00 | 3 | 1010.5 |
| 20260507191404 | 11 | 261 | 0.0 | 0.0 | 0.00 | 0.00 | 0.00 | 3 | 1010.3 |
| 20260507184904 | 11 | 261 | 0.0 | 0.0 | 0.00 | 0.00 | 0.00 | 3 | 1010.3 |
| 20260507183406 | 11 | 263 | 0.0 | 0.0 | 0.00 | 0.00 | 0.00 | 3 | 1010.3 |
| 20260507181904 | 11 | 262 | 0.0 | 0.0 | 0.00 | 0.00 | 0.00 | 3 | 1010.2 |
| 20260507181405 | 11 | 262 | 0.0 | 0.0 | 0.00 | 0.00 | 0.00 | 3 | 1010.2 |
| 20260507180903 | 11 | 262 | 0.0 | 0.0 | 0.00 | 0.00 | 0.00 | 3 | 1010.2 |
| 20260507180404 | 11 | 262 | 0.0 | 0.0 | 0.00 | 0.00 | 0.00 | 3 | 1010.2 |
| 20260507174904 | 12 | 263 | 0.0 | 0.0 | 0.00 | 0.00 | 0.00 | 3 | 1010.2 |
| 20260507174404 | 12 | 262 | 0.0 | 0.0 | 0.00 | 0.00 | 0.00 | 3 | 1010.2 |
| 20260507173904 | 12 | 263 | 0.0 | 0.0 | 0.00 | 0.00 | 0.00 | 3 | 1010.2 |
| 20260507164404 | 13 | 200 | 11.3 | 24.1 | 0.00 | 0.00 | 0.00 | 20 | 1010.2 |
| 20260507163904 | 13 | 157 | 0.0 | 4.8 | 0.00 | 0.00 | 0.00 | 25 | 1010.0 |
| 20260507160904 | 12 | 149 | 1.6 | 20.9 | 0.00 | 0.00 | 0.00 | 27 | 1009.8 |
| 20260507160403 | 12 | 117 | 4.8 | 16.1 | 0.00 | 0.00 | 0.00 | 29 | 1009.8 |
| 20260507154903 | 12 | 146 | 1.6 | 12.9 | 0.00 | 0.00 | 0.00 | 26 | 1010.0 |
| 20260507154404 | 12 | 143 | 0.0 | 9.7 | 0.00 | 0.00 | 0.00 | 22 | 1010.0 |
| 20260507153404 | 12 | 154 | 4.8 | 19.3 | 0.00 | 0.00 | 0.00 | 19 | 1010.0 |
| 20260507150403 | 12 | 169 | 0.0 | 20.9 | 0.00 | 0.00 | 0.00 | 29 | 1010.1 |
| 20260507143904 | 13 | 133 | 1.6 | 19.3 | 0.00 | 0.00 | 0.00 | 27 | 1010.3 |
| 20260507140905 | 15 | 168 | 4.8 | 20.9 | 0.00 | 0.00 | 0.00 | 24 | 1010.7 |
| 20260507140404 | 15 | 153 | 4.8 | 19.3 | 0.00 | 0.00 | 0.00 | 23 | 1010.6 |
| 20260507133903 | 13 | 111 | 4.8 | 19.3 | 0.00 | 0.00 | 0.00 | 17 | 1010.8 |
| 20260507133404 | 13 | 122 | 3.2 | 19.3 | 0.00 | 0.00 | 0.00 | 17 | 1010.7 |
| 20260507131404 | 12 | 152 | 8.0 | 19.3 | 0.00 | 0.00 | 0.00 | 12 | 1010.9 |
| 20260507130404 | 12 | 150 | 4.8 | 20.9 | 0.00 | 0.00 | 0.00 | 12 | 1011.0 |
| 20260507124905 | 12 | 95 | 1.6 | 9.7 | 0.00 | 0.00 | 0.00 | 4 | 1011.1 |
| 20260507124404 | 12 | 135 | 4.8 | 19.3 | 0.00 | 0.00 | 0.00 | 5 | 1011.2 |
| 20260507123904 | 12 | 147 | 8.0 | 19.3 | 0.00 | 0.00 | 0.00 | 6 | 1011.2 |
| 20260507121904 | 12 | 140 | 6.4 | 20.9 | 0.00 | 0.00 | 0.00 | 4 | 1011.2 |
| 20260507120404 | 12 | 140 | 6.4 | 19.3 | 0.00 | 0.00 | 0.00 | 3 | 1011.3 |
| 20260507114404 | 11 | 134 | 9.7 | 24.1 | 0.00 | 0.00 | 0.00 | 3 | 1011.3 |
| 20260507111403 | 10 | 134 | 4.8 | 14.5 | 0.00 | 0.00 | 0.00 | 3 | 1011.5 |
| 20260507104404 | 8 | 140 | 4.8 | 19.3 | 0.00 | 0.00 | 0.00 | 3 | 1011.7 |
| 20260507103404 | 8 | 132 | 4.8 | 16.1 | 0.00 | 0.00 | 0.00 | 3 | 1011.7 |
| 20260507101404 | 8 | 132 | 1.6 | 8.0 | 0.00 | 0.00 | 0.00 | 3 | 1011.7 |
| 20260507100903 | 8 | 127 | 1.6 | 16.1 | 0.00 | 0.00 | 0.00 | 3 | 1011.7 |
| 20260507094904 | 7 | 133 | 1.6 | 9.7 | 0.00 | 0.00 | 0.00 | 3 | 1011.7 |
| 20260507094404 | 7 | 140 | 0.0 | 14.5 | 0.00 | 0.00 | 0.00 | 3 | 1011.8 |
| 20260507093904 | 7 | 129 | 4.8 | 19.3 | 0.00 | 0.00 | 0.00 | 3 | 1011.8 |
| 20260507093405 | 7 | 119 | 3.2 | 16.1 | 0.00 | 0.00 | 0.00 | 3 | 1011.8 |
| 20260507091403 | 7 | 135 | 1.6 | 9.7 | 0.00 | 0.00 | 0.00 | 3 | 1011.8 |
| 20260507090905 | 7 | 103 | 1.6 | 8.0 | 0.00 | 0.00 | 0.00 | 3 | 1011.8 |
| 20260507084904 | 7 | 117 | 1.6 | 9.7 | 0.00 | 0.00 | 0.00 | 3 | 1011.7 |
| 20260507081403 | 7 | 135 | 1.6 | 11.3 | 0.00 | 0.00 | 0.00 | 3 | 1011.7 |